[[{"header":{"parameterUnit":"m.s-1","parameterCategory":1,"la1":30.2991,"la2":30.254,"lo1":-89.0895,"lo2":-89.0444,"dy":0.0017,"dx":0.0017,"nx":28,"ny":28,"refTime":"2025-08-14T21:00:00:Z","depth":0,"parameterNumber":2,"parameterNumberName":"U-component_of_WINDS"},"data":[0,0,0,0,0,0,0,0,0,0,0,0,0,0,0,0,0,0,0,0,0,0,0,0,0,0,0,0,0,0,0,0,0,0,0,0,0,0,0,0,0,0,0,0,0,0,0,0,0,0,0,0,0,0,0,0,0,0,0.623,0.6231,0,0.6363,0.6365,0.6366,0.6398,0.6397,0.6396,0.6395,0.6539,0.6543,0.6548,0,0,0,0,0,0,0,0,0,0,0,0,0,0.6007,0.6011,0.6229,0.6231,0.6233,0.6363,0.6365,0.6367,0.6398,0.6397,0.6396,0.6395,0.6537,0.6543,0.6548,0,0,0,0,0,0,0,0,0,0,0,0,0,0.6119,0.6012,0.6229,0.6264,0.6268,0.6363,0.6365,0.6367,0.6398,0.6397,0.6396,0.6394,0.6535,0.6542,0.6549,0.662,0,0,0.6571,0.6574,0,0,0,0,0,0,0,0,0.6112,0.6127,0.6257,0.6262,0.6267,0.6362,0.6339,0.6452,0.6399,0.6349,0.6395,0.6394,0.6482,0.6493,0.6521,0.6627,0.6633,0.6571,0.6576,0.6579,0.6581,0,0,0,0,0,0,0,0.6105,0.6121,0.6283,0.6259,0.6265,0.6275,0.6289,0.6361,0.6422,0.6353,0.6356,0.6371,0.6484,0.6515,0.6525,0.6635,0.6571,0.6577,0.6582,0.6584,0.6807,0.6808,0,0,0,0,0,0,0.609,0.6115,0.6278,0.6287,0.6184,0.628,0.6296,0.6333,0.6421,0.6433,0.6372,0.6372,0.6503,0.6517,0.653,0.6619,0.6579,0.6585,0.6589,0.6805,0.6807,0.6809,0,0,0,0,0,0,0.6085,0.6104,0.6273,0.6201,0.6224,0.6285,0.6327,0.6337,0.6367,0.6435,0.6447,0.6391,0.6503,0.652,0.6597,0.6624,0.6588,0.6595,0.6803,0.6806,0.6808,0.6796,0,0,0,0,0,0,0.6078,0.6102,0.6128,0.6202,0.6227,0.6336,0.6329,0.634,0.6378,0.6379,0.6456,0.6468,0.6503,0.6587,0.6604,0.6633,0.66,0.6801,0.6804,0.6807,0.6795,0.6798,0.6801,0,0,0,0,0,0.607,0.6121,0.6129,0.6149,0.6261,0.6337,0.6352,0.6389,0.638,0.6408,0.6452,0.6466,0.6619,0.6594,0.6614,0.6646,0.6799,0.6803,0.6807,0.6793,0.6798,0.6801,0,0,0,0,0,0,0.6051,0.6131,0.6141,0.6217,0.627,0.6342,0.6378,0.6393,0.6451,0.645,0.6496,0.6513,0.6587,0.6625,0.6596,0.672,0.6709,0.6717,0.6692,0.6696,0.67,0.6689,0.6606,0,0,0,0,0,0.6056,0.6109,0.6177,0.6237,0.6263,0.6316,0.6351,0.6375,0.6432,0.6455,0.6505,0.6562,0.6623,0.6662,0.6722,0.6801,0.6818,0.6833,0.6836,0.6838,0.6844,0.6889,0.6896,0.6821,0.6821,0.6821,0,0,0.6066,0.6116,0.6147,0.6235,0.6278,0.6334,0.6335,0.6394,0.6436,0.6465,0.6539,0.6578,0.6645,0.6723,0.676,0.6757,0.6869,0.6843,0.6844,0.6849,0.6893,0.69,0.6906,0.6824,0.6823,0.6823,0,0,0.6112,0.6155,0.621,0.6253,0.6319,0.6354,0.6367,0.6437,0.6463,0.6538,0.6561,0.6614,0.6718,0.6764,0.6801,0.6866,0.6881,0.6884,0.6901,0.6944,0.695,0.6955,0.6978,0.6985,0.6891,0.6891,0.6891,0,0.6116,0.6199,0.6236,0.6294,0.6332,0.6359,0.6415,0.6457,0.6539,0.6566,0.6561,0.6691,0.6739,0.6827,0.6843,0.6873,0.689,0.6875,0.6946,0.6951,0.6957,0.6979,0.6987,0.689,0.689,0.689,0.689,0,0.6201,0.6258,0.6295,0.6371,0.6414,0.6471,0.6518,0.6558,0.6579,0.6615,0.6692,0.6749,0.6821,0.6844,0.6866,0.6937,0.6932,0.6936,0.6926,0.6963,0.6985,0.6993,0.689,0.689,0.689,0.689,0,0,0.6237,0.6333,0.6346,0.6381,0.6456,0.6502,0.6561,0.6629,0.6661,0.6719,0.6769,0.6857,0.686,0.6903,0.6931,0.6968,0.7015,0.6967,0.697,0.6973,0.7096,0.7091,0.71,0.7025,0.7027,0.7029,0.709,0,0.6291,0.6394,0.643,0.6516,0.657,0.6597,0.6649,0.6701,0.6737,0.679,0.6831,0.6891,0.6892,0.6917,0.6956,0.7,0.704,0.6997,0.7074,0.7077,0.7055,0.7112,0.7107,0.7162,0.7098,0.71,0.7101,0,0.6368,0.6423,0.6513,0.6581,0.6605,0.6651,0.6716,0.6766,0.6826,0.685,0.6897,0.6922,0.6987,0.6974,0.7064,0.7034,0.7068,0.7095,0.7098,0.7106,0.709,0.712,0.718,0.7188,0.7114,0.7113,0.7112,0,0.6383,0.6481,0.6548,0.6577,0.6658,0.6689,0.6725,0.6784,0.6823,0.6882,0.6907,0.6973,0.7009,0.706,0.7103,0.709,0.719,0.718,0.7212,0.721,0.723,0.7228,0.7296,0.7254,0.7254,0.7254,0.7254,0,0.6439,0.6493,0.6556,0.6597,0.6659,0.6701,0.6762,0.68,0.6852,0.6903,0.6932,0.6979,0.7033,0.7087,0.7122,0.7191,0.7208,0.7229,0.7237,0.7226,0.7223,0.7248,0.7245,0.7256,0.7256,0.7255,0.7255,0,0.6466,0.651,0.6585,0.6655,0.6674,0.6717,0.6778,0.682,0.6857,0.6921,0.6938,0.6997,0.7063,0.7111,0.7197,0.722,0.7294,0.7303,0.7272,0.7276,0.7304,0.73,0.7389,0.7403,0.7353,0.7353,0.7354,0,0.6498,0.654,0.6615,0.6649,0.6684,0.674,0.6779,0.6824,0.6863,0.6936,0.6969,0.7037,0.7092,0.7197,0.7249,0.7314,0.7325,0.7352,0.7335,0.7322,0.7324,0.732,0.7325,0.7353,0.7354,0.7354,0.7354,0,0.6549,0.6569,0.6623,0.6685,0.6731,0.6783,0.6835,0.6862,0.6916,0.696,0.7026,0.707,0.7156,0.7223,0.7294,0.7333,0.7353,0.7359,0.737,0.7357,0.7337,0.7348,0.7277,0.7357,0.7356,0.7356,0.7356,0.7356,0.6579,0.6618,0.6676,0.6736,0.678,0.6828,0.687,0.6912,0.6968,0.704,0.7064,0.7132,0.7194,0.7291,0.7331,0.7387,0.7386,0.7401,0.7405,0.7408,0.7407,0.7329,0.74,0.74,0.74,0.74,0.74,0,0.6631,0.667,0.6725,0.6796,0.6843,0.6856,0.6915,0.6955,0.7014,0.7068,0.7122,0.7199,0.7264,0.7321,0.7389,0.7423,0.7434,0.7439,0.7437,0.7446,0.7404,0.7387,0.7429,0.7429,0.7429,0.7429,0.7429,0.7429,0.6663,0.6729,0.6756,0.6844,0.6884,0.6949,0.6982,0.7027,0.7071,0.7154,0.7207,0.7244,0.73,0.7372,0.7433,0.7449,0.7472,0.7475,0.7492,0.7452,0.7449,0.7445,0.743,0.748,0.748,0.753,0.753,0.753]},{"header":{"parameterUnit":"m.s-1","parameterCategory":1,"la1":30.2991,"la2":30.254,"lo1":-89.0895,"lo2":-89.0444,"dy":0.0017,"dx":0.0017,"nx":28,"ny":28,"refTime":"2025-08-14T21:00:00:Z","depth":0,"parameterNumber":3,"parameterNumberName":"V-component_of_WINDS"},"data":[0,0,0,0,0,0,0,0,0,0,0,0,0,0,0,0,0,0,0,0,0,0,0,0,0,0,0,0,0,0,0,0,0,0,0,0,0,0,0,0,0,0,0,0,0,0,0,0,0,0,0,0,0,0,0,0,0,0,2.9051,2.905,0,2.8925,2.8923,2.8922,2.8822,2.8821,2.882,2.8819,2.8682,2.8679,2.8676,0,0,0,0,0,0,0,0,0,0,0,0,0,2.92,2.9198,2.9051,2.905,2.9048,2.8925,2.8923,2.8922,2.8822,2.8821,2.882,2.8819,2.8683,2.8679,2.8676,0,0,0,0,0,0,0,0,0,0,0,0,0,2.911,2.9197,2.9052,2.8984,2.8977,2.8925,2.8923,2.8921,2.8823,2.8821,2.882,2.8819,2.8684,2.868,2.8676,2.8678,0,0,2.8663,2.8661,0,0,0,0,0,0,0,0,2.9116,2.9105,2.8996,2.8989,2.8981,2.8888,2.8925,2.8839,2.8823,2.8881,2.8819,2.8818,2.8751,2.8741,2.872,2.8672,2.8666,2.8662,2.866,2.8658,2.8657,0,0,0,0,0,0,0,2.9122,2.911,2.9001,2.8994,2.8985,2.8958,2.8943,2.8908,2.8825,2.8876,2.8868,2.8855,2.8746,2.8725,2.8716,2.8664,2.8663,2.8659,2.8656,2.8655,2.8609,2.8611,0,0,0,0,0,0,2.914,2.9116,2.9005,2.8997,2.9046,2.8956,2.894,2.8919,2.8825,2.881,2.8857,2.8851,2.8732,2.8721,2.8711,2.8707,2.8658,2.8654,2.8652,2.8608,2.861,2.8611,0,0,0,0,0,0,2.9143,2.9131,2.901,2.9054,2.9037,2.8955,2.8932,2.8917,2.8895,2.8811,2.8795,2.885,2.8731,2.8717,2.8687,2.8701,2.8652,2.8649,2.8607,2.8609,2.861,2.87,0,0,0,0,0,0,2.9148,2.9133,2.9135,2.9055,2.9035,2.8991,2.8933,2.8916,2.8889,2.8881,2.88,2.8786,2.8729,2.8694,2.8683,2.8694,2.8645,2.8605,2.8608,2.861,2.8695,2.8704,2.8712,0,0,0,0,0,2.9154,2.9163,2.9135,2.9122,2.9036,2.8992,2.898,2.8917,2.8891,2.8891,2.8837,2.8788,2.8702,2.8692,2.8679,2.8689,2.8604,2.8607,2.861,2.8691,2.8702,2.8712,0,0,0,0,0,0,2.9243,2.9152,2.9119,2.9104,2.9057,2.8976,2.8974,2.8931,2.8888,2.8882,2.8803,2.8785,2.8764,2.8723,2.8714,2.8686,2.8646,2.8647,2.8713,2.8723,2.8731,2.874,2.8642,0,0,0,0,0,2.9262,2.9237,2.9157,2.9151,2.9129,2.9056,2.9034,2.899,2.8937,2.8915,2.8859,2.8807,2.8767,2.8743,2.8702,2.8689,2.8669,2.8689,2.8698,2.8706,2.8706,2.8694,2.8702,2.8621,2.8621,2.8621,0,0,2.9299,2.9246,2.9234,2.9167,2.9126,2.9098,2.904,2.9013,2.8991,2.891,2.8879,2.8836,2.8773,2.8751,2.8739,2.8717,2.8724,2.8709,2.8716,2.8712,2.8698,2.8706,2.8713,2.8623,2.8622,2.8622,0,0,2.9352,2.931,2.93,2.926,2.9199,2.915,2.9148,2.9073,2.9042,2.9011,2.8949,2.8921,2.8856,2.8813,2.8782,2.882,2.8773,2.8809,2.8853,2.8843,2.8849,2.8854,2.8866,2.8871,2.881,2.8811,2.8811,0,2.9404,2.9364,2.93,2.9278,2.9249,2.9178,2.9166,2.9129,2.9057,2.9038,2.9015,2.8932,2.8884,2.885,2.886,2.8838,2.8831,2.8817,2.8854,2.8859,2.8862,2.8872,2.8877,2.8815,2.8815,2.8814,2.8814,0,2.9431,2.9403,2.9402,2.9337,2.9309,2.9292,2.9223,2.9202,2.916,2.9113,2.9081,2.9022,2.8967,2.8956,2.8914,2.8917,2.8905,2.887,2.8828,2.8876,2.8884,2.8887,2.8822,2.882,2.8819,2.8818,0,0,2.9534,2.9436,2.9436,2.9405,2.9333,2.9309,2.9288,2.9238,2.922,2.9173,2.9151,2.9099,2.9065,2.9031,2.8983,2.8975,2.9007,2.8939,2.8937,2.8952,2.9003,2.9029,2.9035,2.8976,2.8977,2.8977,2.9008,0,2.9574,2.9536,2.9478,2.9457,2.943,2.9362,2.9343,2.9295,2.9252,2.922,2.9169,2.9133,2.9093,2.9072,2.906,2.9005,2.9015,2.9003,2.8952,2.8951,2.8969,2.9039,2.9067,2.9099,2.9011,2.9011,2.9012,0,2.9615,2.9575,2.9552,2.9482,2.9468,2.9453,2.9402,2.9373,2.9317,2.9285,2.9248,2.9197,2.9169,2.9134,2.9092,2.9085,2.906,2.9031,2.903,2.9021,2.8983,2.903,2.9107,2.9112,2.9016,2.9016,2.9016,0,2.9691,2.963,2.9609,2.9585,2.9503,2.9493,2.9458,2.9401,2.9374,2.9329,2.931,2.9262,2.9234,2.9196,2.9133,2.9113,2.9097,2.9057,2.9068,2.9069,2.9065,2.9066,2.9138,2.9054,2.9054,2.9054,2.9054,0,2.974,2.9728,2.9642,2.9628,2.9612,2.9546,2.9531,2.9489,2.9439,2.9414,2.9352,2.9329,2.9248,2.9215,2.9165,2.9137,2.9125,2.9097,2.9083,2.9101,2.9105,2.9083,2.9078,2.9055,2.9055,2.9054,2.9054,0,2.9821,2.9763,2.9735,2.9661,2.9642,2.9633,2.9568,2.9551,2.9504,2.9473,2.9462,2.9388,2.9346,2.928,2.9217,2.9183,2.9163,2.9142,2.9183,2.9175,2.9188,2.9187,2.9247,2.925,2.9167,2.9168,2.9169,0,2.9855,2.9845,2.9771,2.9752,2.972,2.9689,2.9662,2.9596,2.957,2.9505,2.9496,2.945,2.9409,2.9345,2.9283,2.9235,2.921,2.9235,2.9202,2.9221,2.9208,2.9209,2.9207,2.9241,2.9243,2.9244,2.9245,0,2.9922,2.9894,2.986,2.9816,2.9786,2.9747,2.9705,2.9692,2.9615,2.9589,2.9547,2.9517,2.9454,2.9408,2.9352,2.9312,2.9265,2.9256,2.9255,2.9273,2.9296,2.9282,2.9202,2.9254,2.9253,2.9252,2.9252,2.9252,2.9979,2.9966,2.9913,2.9876,2.9838,2.98,2.9781,2.9733,2.9698,2.9644,2.9606,2.9567,2.9509,2.9429,2.9392,2.9358,2.9337,2.9337,2.9336,2.9337,2.9343,2.9304,2.9347,2.9347,2.9346,2.9346,2.9346,0,3.004,3.0003,2.997,2.9915,2.9886,2.9848,2.9799,2.9776,2.9743,2.9696,2.9658,2.9609,2.9565,2.9501,2.9451,2.9435,2.9412,2.9424,2.9423,2.9415,2.9365,2.937,2.9444,2.9444,2.9444,2.9444,2.9444,2.9444,3.0069,3.0046,3.0012,2.9968,2.993,2.9893,2.9868,2.9832,2.9794,2.9743,2.9707,2.9667,2.9612,2.9557,2.9514,2.9496,2.9479,2.9498,2.9473,2.9427,2.9418,2.941,2.9413,2.9495,2.9495,2.9525,2.9525,2.9525]}]]